Back to catalog

STARLINK-34169

AliveCommunicationsVLEO
NORAD 63999·PAYLOAD·🇺🇸 United States

Launched May 14, 2025 from Cape Canaveral Space Force Station

Loading…

Next Passes (next 24 hours)

TLE

FreshSource: CelesTrak SupGP

Epoch: Sep 14, 2026, 21:28 UTC

1 63999C 25101F   26257.89493056  .00016226  00000+0  58769-3 0  2572
2 63999  43.0037   9.2654 0001325 278.7654  83.2340 15.27571240    16

Track STARLINK-34169 in real time with AllMySat

Download on the App Store